This demonstration page uses our WeatherBlox Daily Observations layout. Learn more.

Left ArrowRight Arrow

41.12389, -100.76542

Hourly Observations for March 7, 2018

Temp ( °F °C ) Dew Point ( °F °C ) Humidity (%) Winds ( mph kmh ) Pressure ( in mb ) Visibility ( mi km ) Precip ( " mm )
12:53 am 00:53 Clear 23 -5 13 -10.6 65 65 WNW 13 20 30.33 1027 10 16 0.00 0.00
1:53 am 01:53 Clear 19 -7.2 12 -11.1 74 74 NNW 6 9 30.35 1028 10 16 0.00 0.00
2:53 am 02:53 Clear 18 -7.8 12 -11.1 77 77 NNW 6 9 30.35 1028 10 16 0.00 0.00
3:53 am 03:53 Clear 18 -7.8 12 -11.1 77 77 NNW 6 9 30.33 1027 10 16 0.00 0.00
4:53 am 04:53 Clear 16 -8.9 11 -11.7 80 80 NW 5 7 30.33 1027 10 16 0.00 0.00
5:53 am 05:53 Clear 16 -8.9 11 -11.7 80 80 NW 3 6 30.33 1027 10 16 0.00 0.00
6:53 am 06:53 Clear 15 -9.4 10 -12.2 80 80 NW 5 7 30.33 1027 10 16 0.00 0.00
7:53 am 07:53 Sunny 20 -6.7 14 -10 78 78 NW 5 7 30.32 1027 10 16 0.00 0.00
8:53 am 08:53 Sunny 25 -3.9 17 -8.3 72 72 NW 8 13 30.33 1027 10 16 0.00 0.00
9:53 am 09:53 Sunny 31 -0.6 17 -8.3 56 56 NW 7 11 30.32 1027 10 16 0.00 0.00
10:53 am 10:53 Sunny 39 3.9 18 -7.8 43 43 WNW 9 15 30.29 1026 10 16 0.00 0.00
11:53 am 11:53 Sunny 43 6.1 16 -8.9 34 34 W 10 17 30.27 1025 10 16 0.00 0.00
12:53 pm 12:53 Mostly Sunny 48 8.9 15 -9.4 27 27 WNW 14 22 30.23 1024 10 16 0.00 0.00
1:53 pm 13:53 Mostly Sunny 47 8.3 15 -9.4 28 28 NNW 14 22 30.22 1023 10 16 0.00 0.00
2:53 pm 14:53 Mostly Cloudy 48 8.9 15 -9.4 27 27 NNW 17 28 30.21 1023 10 16 0.00 0.00
3:53 pm 15:53 Mostly Cloudy 48 8.9 17 -8.3 29 29 N 14 22 30.21 1023 10 16 0.00 0.00
4:53 pm 16:53 Sunny 46 7.8 17 -8.3 31 31 N 16 26 30.22 1023 10 16 0.00 0.00
5:53 pm 17:53 Sunny 42 5.6 17 -8.3 36 36 NNE 14 22 30.24 1024 10 16 0.00 0.00
6:53 pm 18:53 Clear 36 2.2 17 -8.3 46 46 NNE 12 19 30.27 1025 10 16 0.00 0.00
7:53 pm 19:53 Clear 28 -2.2 16 -8.9 60 60 ENE 5 7 30.29 1026 10 16 0.00 0.00
8:53 pm 20:53 Clear 26 -3.3 15 -9.4 63 63 Calm 30.29 1026 10 16 0.00 0.00
9:53 pm 21:53 Clear 22 -5.6 14 -10 71 71 ENE 3 6 30.29 1026 10 16 0.00 0.00
10:53 pm 22:53 Clear 20 -6.7 13 -10.6 74 74 Calm 30.27 1025 10 16 0.00 0.00
11:53 pm 23:53 Clear 19 -7.2 11 -11.7 71 71 Calm 30.27 1025 10 16 0.00 0.00

Powered by AerisWeather